Regional Weather Roundup
Issued by NWS

Home | Current Version | Previous Version | Text Only | Print | Product List | Glossary Off
Versions: 1 2 3 4 5 6 7 8 9 10 11 12 13 14 15 16 17 18 19 20 21 22 23 24 25 26 27 28 29 30 31 32 33 34 35 36 37 38 39 40 41 42 43 44 45 46 47 48 49 50

000
ASUS43 KLMK 302302
RWRKY
KENTUCKY REGIONAL WEATHER ROUNDUP
NATIONAL WEATHER SERVICE LOUISVILLE KY
700 PM EDT MON MAY 30 2016

NOTE "FAIR" INDICATES FEW OR NO CLOUDS BELOW 12,000 FEET
WITH NO SIGNIFICANT WEATHER AND/OR OBSTRUCTIONS TO VISIBILITY.

KYZ001>023-026-027-061>063-070>075-310000-
WESTERN AND SOUTH CENTRAL KENTUCKY

CITY           SKY/WX    TMP DP  RH WIND       PRES   REMARKS
PADUCAH        SUNNY     87  58  37 E3        29.96F
HENDERSON      SUNNY     86  55  35 CALM      29.96S
OWENSBORO      SUNNY     87  57  35 N8        29.97F
HOPKINSVILLE   NOT AVBL
BOWLING GREEN  SUNNY     85  57  38 N5        29.97F
GLASGOW        NOT AVBL
$$

KYZ024-025-028>034-038-045-046-053-310000-
NORTH CENTRAL KENTUCKY

CITY           SKY/WX    TMP DP  RH WIND       PRES   REMARKS
LOUISVILLE/SDF MOSUNNY   87  55  33 N12       29.96F
LOUISVILLE/LOU SUNNY     86  56  35 N8        29.97F
FORT KNOX      SUNNY     84  58  40 N5        29.96F
$$

KYZ035>037-039>044-047>052-055>060-089>105-310000-
NORTHEAST KENTUCKY

CITY           SKY/WX    TMP DP  RH WIND       PRES   REMARKS
LEXINGTON      SUNNY     84  58  40 N8        29.99F
COVINGTON      MOSUNNY   85  54  34 NW6       29.98F
FRANKFORT      SUNNY     86  55  34 N6        29.97F
$$

KYZ054-064>069-076>088-106>120-310000-
SOUTHEAST KENTUCKY

CITY           SKY/WX    TMP DP  RH WIND       PRES   REMARKS
JACKSON        SUNNY     81  61  50 CALM      30.00F
LONDON         SUNNY     82  59  45 NE9       29.99F
SOMERSET       NOT AVBL
MIDDLESBORO    MOSUNNY   83  64  53 N3        29.98F
MONTICELLO     CLEAR     83  59  44 N16       29.99F
$$




USA.gov is the U.S. government's official web portal to all federal, state and local government web resources and services.